TimeHST,TemperatureF,Dew PointF,Humidity,Sea Level PressureIn,VisibilityMPH,Wind Direction,Wind SpeedMPH,Gust SpeedMPH,PrecipitationIn,Events,Conditions,WindDirDegrees,DateUTC
12:07 AM,71.6,66.2,83,29.95,10.0,Calm,Calm,-,N/A,,Mostly Cloudy,0,2012-10-06 10:07:00
12:15 AM,71.6,66.2,83,29.95,10.0,Calm,Calm,-,N/A,,Mostly Cloudy,0,2012-10-06 10:15:00
12:46 AM,71.6,66.2,83,29.94,10.0,Calm,Calm,-,N/A,,Mostly Cloudy,0,2012-10-06 10:46:00
12:53 AM,71.1,66.0,84,29.96,10.0,Calm,Calm,-,N/A,,Scattered Clouds,0,2012-10-06 10:53:00
1:53 AM,70.0,66.0,87,29.94,10.0,NE,3.5,-,N/A,,Clear,40,2012-10-06 11:53:00
2:53 AM,69.1,66.0,90,29.93,10.0,Calm,Calm,-,N/A,,Clear,0,2012-10-06 12:53:00
3:53 AM,68.0,64.9,90,29.92,10.0,ENE,3.5,-,N/A,,Clear,60,2012-10-06 13:53:00
4:53 AM,66.9,64.9,93,29.92,10.0,NNE,3.5,-,N/A,,Clear,30,2012-10-06 14:53:00
5:53 AM,66.9,64.9,93,29.94,10.0,Calm,Calm,-,N/A,,Partly Cloudy,0,2012-10-06 15:53:00
6:53 AM,68.0,64.9,90,29.95,10.0,Calm,Calm,-,N/A,,Partly Cloudy,0,2012-10-06 16:53:00
7:53 AM,73.9,68.0,82,29.95,10.0,Calm,Calm,-,N/A,,Clear,0,2012-10-06 17:53:00
8:53 AM,75.9,70.0,82,29.97,10.0,SSE,4.6,-,N/A,,Clear,150,2012-10-06 18:53:00
9:53 AM,75.9,71.1,85,29.97,10.0,SE,4.6,-,N/A,,Clear,140,2012-10-06 19:53:00
10:53 AM,78.1,70.0,76,29.96,10.0,South,8.1,-,N/A,,Clear,170,2012-10-06 20:53:00
11:53 AM,80.1,71.1,74,29.95,10.0,South,8.1,-,N/A,,Partly Cloudy,170,2012-10-06 21:53:00
12:53 PM,78.1,70.0,76,29.93,10.0,South,8.1,-,N/A,,Partly Cloudy,190,2012-10-06 22:53:00
1:53 PM,79.0,70.0,74,29.90,10.0,SSW,8.1,-,N/A,,Clear,200,2012-10-06 23:53:00
2:53 PM,79.0,69.1,72,29.89,10.0,SSW,8.1,-,N/A,,Overcast,210,2012-10-07 00:53:00
3:53 PM,78.1,71.1,79,29.88,10.0,SSW,6.9,-,N/A,,Clear,200,2012-10-07 01:53:00
4:53 PM,78.1,70.0,76,29.88,10.0,SSW,6.9,-,N/A,,Partly Cloudy,200,2012-10-07 02:53:00
5:53 PM,77.0,70.0,79,29.89,10.0,SW,6.9,-,N/A,,Scattered Clouds,230,2012-10-07 03:53:00
6:53 PM,75.9,70.0,82,29.90,10.0,WSW,8.1,-,N/A,,Clear,240,2012-10-07 04:53:00
7:53 PM,75.9,71.1,85,29.93,10.0,West,4.6,-,N/A,,Mostly Cloudy,280,2012-10-07 05:53:00
8:53 PM,75.9,71.1,85,29.95,10.0,WSW,4.6,-,N/A,,Mostly Cloudy,240,2012-10-07 06:53:00
9:01 PM,75.2,71.6,89,29.93,10.0,WSW,5.8,-,N/A,,Mostly Cloudy,250,2012-10-07 07:01:00
9:09 PM,75.2,71.6,89,29.93,5.0,NW,6.9,-,0.01,Rain,Rain,320,2012-10-07 07:09:00
9:42 PM,75.2,71.6,89,29.93,10.0,WSW,4.6,-,0.02,,Scattered Clouds,240,2012-10-07 07:42:00
9:53 PM,75.0,72.0,90,29.95,10.0,WSW,4.6,-,0.02,,Partly Cloudy,250,2012-10-07 07:53:00
10:53 PM,73.9,71.1,91,29.94,10.0,SW,3.5,-,N/A,,Partly Cloudy,230,2012-10-07 08:53:00
11:53 PM,75.0,70.0,84,29.93,10.0,SW,6.9,-,N/A,,Partly Cloudy,230,2012-10-07 09:53:00